User: anonymous   Login
Location: Cluj-Napoca
(46.7712°N, 23.6236°E)
Time: 21:32:50
(UTC+02:00)
Language:

FO-99 - Orbit

View from above orbital plane
View from above orbital plane
View from above satellite
View from above satellite

Ground track
Ground track

The orbit data is extracted from the following two-line orbital elements,

1 43937U 19003F   21340.68888078  .00002971  00000-0  11437-3 0  9990
2 43937  97.1559  16.8777 0024077 119.1059 241.2595 15.26855339160536
Epoch (UTC): 06 December 2021 16:31:59
Eccentricity: 0.0024077
inclination: 97.1559°
perigee height: 469 km
apogee height: 502 km
right ascension of ascending node: 16.8777°
argument of perigee: 119.1059°
revolutions per day: 15.26855339
mean anomaly at epoch: 241.2595°
orbit number at epoch: 16053

The dashed part of the orbit path shows where the satellite is in the earth's shadow,  

DLR